Погода в Чулкове

Россия / Владимирская область     56°06′40″N   42°31′00″E
темп.,
°C
ветер,
м/с
пор.,
м/с
влажн.,
%
обл.,
%
осадки,
мм/ч
давл.,
гПа
погр.,
м
15 апреля, чт
чт1500:00+11ю226842 0.0 101921
03:00+9ю227433 0.0 101913
06:00+8ююв117530 0.0 101811
09:00+15ююв225253 0.0 1018298
12:00+19юв1239100 0.0 1018819
15:00+20в2232100 0.0 10171906
18:00+17св3548100 0.0 1018109
21:00+11св41084100 0.0 1019279
16 апреля, пт
пт1600:00+9св51192100 0.0 1020383
03:00+7св51192100 0.0 1021395
06:00+6всв51191100 0.0 1022426
09:00+9всв6873100 0.0 1023574
12:00+13всв686195 0.0 1023897
15:00+14всв6759100 0.0 10231104
18:00+12в596860 0.0 1024902
21:00+9всв4127933 0.0 1025522
17 апреля, сб
сб1700:00+7всв5127634 0.0 1025437
03:00+5всв5127029 0.0 1026391
06:00+4всв512705 0.0 1027407
09:00+8всв610535 0.0 1027651
12:00+12всв68415 0.0 10261136
15:00+14всв68305 0.0 10261466
18:00+11всв48400 0.0 1026502
21:00+7св310610 0.0 1027208
18 апреля, вс
вс1800:00+5св39690 0.0 1027187
03:00+3св37770 0.0 1028132
06:00+3св27820 0.0 1029174
09:00+9св47540 0.0 1029652
12:00+12св46393 0.0 10291496
15:00+13св56395 0.0 10281786
18:00+12св47465 0.0 1029502
21:00+7в411675 0.0 1031425
19 апреля, пн
пн1900:00+4в397736 0.0 1033300
03:00+2всв3879100 0.0 1034240
06:00+2в3866100 0.0 1036311
09:00+5в5744100 0.0 1036825
12:00+8вюв5635100 0.0 10361449
15:00+9вюв453350 0.0 10351607
18:00+7вюв464034 0.0 1035788
21:00+3вюв39574 0.0 1035177